Weather in Petropavlovka

Russia / Novosibirsk Oblast     54°01′03″N   79°38′47″E
temp.,
°C
wind,
m/s
gust,
m/s
humid.,
%
clouds,
%
prec.,
mm/h
press.,
hPa
HPBL,
m
2 march, tue
tue201:00−11nnw229790 0.8 101021
04:00−11wnw359699 0.3 1012149
07:00−16wnw349892 0.4 101469
10:00−18w3598100 0.0 101694
13:00−15wsw2494100 0.1 1017243
16:00−13wsw3493100 0.0 1017324
19:00−16wsw2298100 0.1 101720
22:00−17wsw119899 0.0 101720
3 march, wed
wed301:00−18sw129996 0.0 101720
04:00−17sw229788 0.1 101721
07:00−17sw239685 0.2 101839
10:00−15ssw359588 0.1 1019202
13:00−13sw469387 0.1 1020349
16:00−11ssw5891100 0.1 1020519
19:00−12ssw51093100 0.1 1021387
22:00−15ssw6139494 0.0 1022309
4 march, thu
thu401:00−14ssw7149289 0.0 1021348
04:00−12ssw71391100 0.0 1020388
07:00−11ssw71491100 0.0 1020371
10:00−10s81491100 0.0 1019424
13:00−7ssw91592100 0.1 1018553
16:00−5ssw91590100 0.1 1016620
19:00−5ssw91689100 0.1 1016639
22:00−5s91688100 0.0 1014547
5 march, fri
fri501:00−5s81687100 0.0 1014521
04:00−7s8158780 0.0 1012422
07:00−8ssw8149290 0.1 1011419
10:00−6ssw71492100 0.1 1010558
13:00−3wsw91388100 0.5 1013992
16:00−6wsw8138167 0.1 1017771
19:00−7sw8158565 0.1 1019540
22:00−8sw9188555 0.0 1020622
6 march, sat
sat601:00−7sw10178678 0.0 1020761
04:00−7sw101789100 0.1 1019757
07:00−7sw101790100 0.3 1019727
10:00−7sw91691100 0.2 1019666
13:00−6sw91491100 0.4 1019693
16:00−5sw81490100 0.1 1019729
19:00−6sw71489100 0.3 1019665
22:00−8sw5129290 0.0 1020336